星链-36437(STARLINK-36437)

导读

STARLINK-36437是美国太空探索技术公司(SpaceX)星链(Starlink)星座中的一颗卫星,于2026年1月14日成功发射。星链项目旨在构建全球卫星互联网星座,为全球偏远地区、海洋等缺乏地面网络覆盖的区域提供高速宽带互联网服务,支持流媒体、视频通话、在线游戏等日常互联网应用,推动全球互联网接入的普及与均衡发展。

Basic Information
目录编号:
67465
目录名称:
STARLINK-36437
国际标识:
2026-008W
轨道中心:
EARTH
卫星名称:
星链-36437
卫星全名:
星链-36437(STARLINK-36437)
卫星状态:
在轨 (已飞行234 天)
发射日期:
2026-01-14 UTC
国别 :
美国 (US)
星等 :
--
Orbit Information
数据来源 国际轨道数据
星历时间: 2026-09-05T10:26:35+0800
13小时前
查看轨道信息
半长轴: 6861.162km
偏心率: 0.0000749
轨道倾角: 43.000°
近地点辐角 254.305°
升交点赤经 271.761°
平近点角 105.772°
近地点: 482.511km
远地点: 483.539km
周期: 94.266分钟
每日圈数: 15.275882
Detailed Information
固有亮度:
5
最大亮度:
2.5
卫星平台:
Starlink V1.0
覆盖范围:
全球
运营商:
太空探索技术公司
运营商所在国:
美国
制造商(研发单位):
太空探索技术公司
制造商所在国:
美国
使用方式:
暂无
Satellite Introduction
Starlink 计划是 SpaceX 推出的全球卫星互联网项目,通过发射低轨道卫星,为全球尤其是偏远地区提供高速、低延迟的互联网服务。自 2019 年起,Starlink 已部署数千颗卫星,旨在缩小全球数字鸿沟,推动互联网普及。该项目还为军事、航空等行业提供通信支持,带来广泛经济效益。
2D Orbit Map
3D Orbit Map
Orbit Altitude Analysis Chart
Orbit Inclination Analysis Chart
Orbit Comprehensive Analysis Chart
View Comprehensive Chart
Conjunction Data List
Event ID Objects TCA Miss Dist (km) Collision Risk Probability Collision Risk Index (CRI) Action
CDM_260907-181906-262506-746521
2026-09-07T
18:19:15+0000
2.400 km
极远距离
1.531985E-6 低风险 0.39
CDM_260906-162706-393006-746521
2026-09-06T
16:27:01+0000
2.492 km
极远距离
1.316875E-6 低风险 0.37